Flag for Australia Weather past 2 weeks in Canberra, Australian Capital Territory, Australia

Now
36 °F

Clear.


Feels Like: 28 °F
Forecast: 33 / 51 °F
Wind: 10 mph from Northwest

Location: Canberra Airport

Current Time: Aug 2, 2014 at 2:44:10 AM

Latest Report: Aug 2, 2014 at 2:00 AM


Visibility: N/A

Pressure: 30.04 "Hg

Humidity: 75%

Dew point: 28 °F

Location of CanberraLocation

Historic Weather in Canberra — Graph

°F

Canberra temperature yesterday

Maximum temperature yesterday: 55 °F (at 12:00 AM)
Minimum temperature yesterday: 36 °F (at 6:30 PM)
Average temperature yesterday: 43 °F

Past Weeks' High & Low Weather Summary

 TemperatureHumidityPressure
High63 °F (Jul 31, 12:00 PM)100% (Jul 20, 6:00 AM)30.36 "Hg (Jul 20, 6:00 AM)
Low23 °F (Jul 20, 7:00 AM)35% (Jul 20, 2:00 PM)29.59 "Hg (Jul 31, 11:30 PM)
Average44 °F76%30.09 "Hg
* Reported Jul 18 1:00 AM — Aug 2 1:30 AM, Canberra, Weather by CustomWeather, © 2014

Note: Actual official high and low records may vary slightly from our data, if they occured in-between our weather recording intervals... More about our weather records

Advertising

Canberra weather history for previous 24 hours

 ConditionsComfort  
Time TempWeatherWind HumidityBarometerVisibility
1:30 AM
Aug 2
36 °FClear.12 mph75%30.01 "HgN/A
1:00 AM36 °FClear.12 mph75%30.01 "HgN/A
12:30 AM36 °FClear.15 mph75%30.01 "HgN/A
12:00 AM34 °FClear.8 mph81%30.01 "HgN/A
11:30 PM
Aug 1
36 °FClear.10 mph81%30.01 "HgN/A
11:00 PM36 °FClear.9 mph81%29.98 "HgN/A
10:30 PM36 °FPassing clouds.9 mph81%29.98 "HgN/A
10:00 PM36 °FPassing clouds.9 mph87%29.98 "HgN/A
9:30 PM36 °FPassing clouds.8 mph87%29.95 "HgN/A
9:00 PM37 °FPassing clouds.10 mph81%29.95 "HgN/A
8:30 PM39 °FPartly cloudy.10 mph81%29.95 "HgN/A
8:00 PM39 °FPartly cloudy.13 mph81%29.92 "HgN/A
7:30 PM37 °FPartly cloudy.13 mph87%29.92 "HgN/A
7:00 PM37 °FPartly cloudy.13 mph87%29.89 "HgN/A
6:30 PM36 °FPassing clouds.12 mph87%29.89 "HgN/A
6:00 PM37 °FScattered showers. Passing clouds.12 mph87%29.86 "HgN/A
5:30 PM37 °FSprinkles. Passing clouds.10 mph87%29.86 "HgN/A
5:00 PM37 °FScattered showers. Passing clouds.17 mph87%29.83 "HgN/A
4:30 PM37 °FScattered showers. Passing clouds.16 mph93%29.83 "HgN/A
4:00 PM37 °FSprinkles. Broken clouds.14 mph93%29.83 "HgN/A
3:00 PM41 °FScattered showers. Partly sunny.15 mph81%29.77 "HgN/A
2:30 PM39 °FSprinkles. Scattered clouds.24 mph81%29.77 "HgN/A
2:00 PM45 °FScattered showers. Scattered clouds.24 mph61%29.74 "HgN/A
1:30 PM43 °FSprinkles. Scattered clouds.20 mph71%29.77 "HgN/A
1:00 PM45 °FScattered showers. Scattered clouds.21 mph66%29.77 "HgN/A
12:30 PM43 °FScattered showers. Scattered clouds.23 mph66%29.77 "HgN/A
12:00 PM45 °FPassing clouds.25 mph61%29.77 "HgN/A
11:49 AM46 °FScattered showers. Scattered clouds.24 mph53%29.77 "HgN/A
11:30 AM45 °FScattered clouds.22 mph57%29.77 "HgN/A
11:00 AM45 °FScattered clouds.17 mph57%29.77 "HgN/A
10:30 AM43 °FScattered showers. Scattered clouds.20 mph53%29.77 "HgN/A
10:00 AM43 °FScattered showers. Scattered clouds.15 mph57%29.77 "HgN/A
9:30 AM43 °FScattered showers. Passing clouds.17 mph61%29.77 "HgN/A
9:00 AM41 °FScattered showers. Passing clouds.18 mph61%29.77 "HgN/A
8:30 AM43 °FScattered showers. Scattered clouds.20 mph61%29.77 "HgN/A
8:00 AM43 °FScattered showers. Passing clouds.16 mph61%29.74 "HgN/A
7:30 AM41 °FScattered showers. Passing clouds.16 mph70%29.74 "HgN/A
7:00 AM43 °FScattered showers. Scattered clouds.17 mph66%29.71 "HgN/A
6:30 AM43 °FScattered showers. Broken clouds.14 mph71%29.68 "HgN/A
6:00 AM43 °FSprinkles. Partly sunny.13 mph66%29.68 "HgN/A
5:30 AM43 °FScattered showers. Passing clouds.14 mph66%29.68 "HgN/A
5:00 AM45 °FPartly cloudy.15 mph66%29.68 "HgN/A
4:49 AM46 °FPassing clouds.21 mph66%29.68 "HgN/A
4:30 AM46 °FScattered showers. Passing clouds.18 mph76%29.65 "HgN/A
4:00 AM48 °FMostly cloudy.14 mph71%29.62 "HgN/A
3:30 AM48 °FMostly cloudy.16 mph71%29.62 "HgN/A
3:00 AM48 °FPassing clouds.16 mph66%29.62 "HgN/A
2:30 AM48 °FClear.15 mph62%29.62 "HgN/A
2:00 AM52 °FClear.20 mph47%29.62 "HgN/A
Weather by CustomWeather, © 2014

See weather overviewHow to use our weather pages